Wind_Speed
22 21 21 22 21 21 21 20 19 18 18 17 17 17 16 16 15 15 15 15 15 14 13 12 12 12 12 12 12 12 12 12 12 12 11 11 11 10 9 9 9 9 9 9 8 8 8 8 8 8 8 8 8 8 8 8 8 8 8 8 8 8 8 9 9 10 10 10 10 9 10 10 10 11 12 13 13 13 15 15 16 16 16 15 15
21 20 20 22 23 22 22 22 21 21 20 20 19 19 19 18 18 17 17 17 16 16 15 14 14 13 13 13 13 13 14 14 14 14 13 13 13 12 12 12 12 11 11 11 11 10 10 10 10 10 10 10 10 9 9 9 9 8 9 9 9 9 9 9 9 9 10 11 11 11 11 11 11 12 12 13 14 14 15 17 17 18 18 18 17
23 21 22 24 23 22 22 22 22 22 21 21 21 21 21 20 20 19 19 19 18 18 17 16 16 16 15 15 15 15 15 15 16 16 16 15 15 14 14 14 14 13 13 13 13 13 12 12 11 11 11 11 11 11 11 11 10 10 10 11 11 11 11 10 9 9 10 11 12 13 12 12 13 13 14 15 16 16 17 18 19 20 20 20 19
23 22 24 26 24 23 23 22 22 22 22 23 23 23 23 22 22 21 21 21 21 20 19 19 18 18 18 17 17 17 16 17 17 17 17 17 17 16 15 16 16 14 14 15 15 15 15 15 14 13 13 13 13 13 13 13 13 12 12 12 12 12 12 11 10 10 10 11 12 13 13 13 13 14 15 16 17 18 19 20 21 22 22 22 22
24 24 25 25 24 23 23 23 23 22 22 23 23 24 24 23 23 23 22 22 23 22 21 21 20 20 20 19 19 18 18 18 18 18 18 18 18 18 17 17 17 16 16 17 17 17 17 17 17 15 15 15 15 14 15 15 16 15 14 13 13 13 12 12 11 11 11 11 12 13 14 14 14 14 15 17 19 20 20 21 22 23 23 23 24
24 24 24 24 23 24 24 23 23 22 22 23 23 24 24 25 24 24 23 23 23 23 23 23 22 22 22 21 20 19 19 18 19 19 19 20 20 19 19 19 18 18 18 19 19 19 19 20 19 18 17 17 17 16 17 17 17 18 18 16 15 14 14 14 12 12 12 12 13 14 14 15 15 16 16 17 20 21 21 21 22 23 24 24 24
24 23 22 23 24 25 24 23 23 23 22 22 23 24 24 25 25 25 25 24 23 24 24 24 24 24 23 23 22 20 19 19 20 20 20 21 21 21 21 21 20 19 19 20 21 20 20 20 20 20 19 18 18 18 19 18 18 19 19 18 18 17 16 16 15 15 15 15 15 16 16 15 16 17 17 17 20 21 20 22 22 22 23 25 25
23 24 24 24 25 25 24 23 23 23 22 22 23 25 26 26 26 26 26 26 25 25 25 26 26 25 24 24 23 22 21 21 21 22 22 21 21 22 22 22 22 22 22 23 22 21 21 21 21 21 21 19 20 20 20 20 20 20 19 19 20 20 19 19 18 17 18 19 19 19 19 18 18 19 19 19 21 20 21 23 21 19 21 25 26
25 26 26 26 26 25 23 23 23 23 23 23 23 25 26 26 26 27 27 27 27 26 26 27 27 26 26 25 24 25 24 23 23 24 23 22 22 23 24 24 24 24 25 24 23 23 23 22 23 23 21 21 22 23 23 23 23 23 22 22 23 23 22 22 23 22 21 22 23 23 23 22 21 21 22 23 22 21 21 22 21 18 21 24 25
27 28 28 28 26 25 24 25 25 25 25 26 25 26 27 26 27 30 30 28 27 27 26 27 27 28 27 26 25 26 26 26 26 26 26 25 25 25 25 25 25 26 27 26 24 24 24 25 25 23 23 24 25 26 27 26 26 26 26 26 26 25 24 24 25 26 25 25 24 24 25 24 24 24 25 25 25 24 24 25 23 20 21 24 26
30 30 29 29 28 26 26 28 30 29 28 28 29 30 30 28 28 30 31 31 30 29 27 27 28 29 29 29 28 26 26 27 29 30 29 28 27 27 26 27 26 26 27 27 27 27 27 28 27 25 25 26 26 27 30 30 29 28 28 29 29 28 27 26 26 26 27 26 26 26 26 26 25 25 26 26 27 26 27 28 27 23 22 25 27
32 31 31 32 31 29 28 30 32 32 31 31 31 32 32 32 30 29 30 32 33 30 28 28 29 29 29 30 29 28 29 30 30 31 31 31 30 29 28 28 27 27 28 28 29 30 30 31 29 27 27 27 27 29 31 31 31 31 31 32 32 31 30 28 27 27 27 26 26 27 28 27 26 26 28 28 28 28 29 29 29 27 26 27 28
33 33 33 33 33 31 29 30 32 33 34 34 35 35 35 35 33 31 31 32 32 31 30 30 31 30 31 31 30 30 31 32 32 32 33 33 32 31 30 30 30 29 29 30 31 32 32 32 31 30 29 28 29 31 31 31 32 33 34 35 34 33 33 32 30 29 29 28 26 27 29 29 28 28 31 31 30 31 31 31 31 30 29 29 29
33 33 32 32 33 32 31 32 33 33 34 34 34 36 38 38 36 35 34 34 33 33 32 32 33 32 33 34 32 32 33 34 34 34 34 35 34 33 33 32 32 32 30 30 32 32 32 32 33 33 32 31 31 32 32 33 35 35 35 35 34 34 34 35 34 33 32 32 31 30 32 33 32 31 32 32 33 33 34 34 33 32 31 31 31
32 31 31 31 32 32 31 32 32 32 31 31 30 31 34 37 38 38 37 36 35 35 34 35 35 35 35 35 34 34 35 36 37 36 36 37 36 36 35 34 34 34 32 31 31 31 31 32 33 36 37 35 35 35 34 35 37 37 35 34 34 34 35 35 36 35 35 36 35 33 34 36 36 36 35 35 35 34 34 36 36 34 33 33 35
25 24 24 25 25 25 24 25 27 28 29 28 28 27 28 32 36 38 39 39 38 37 37 37 38 37 37 36 34 35 37 39 39 39 39 39 38 38 38 36 36 36 36 34 33 32 32 31 32 36 39 39 39 40 38 37 38 39 37 36 36 36 35 36 37 37 37 37 37 36 37 38 39 40 39 38 36 35 36 38 38 36 34 34 36
16 16 17 17 17 18 18 19 21 23 24 24 25 26 26 26 30 34 37 39 40 40 39 40 41 40 39 37 36 36 39 40 40 41 41 41 41 41 40 37 36 38 39 38 36 35 35 34 34 36 39 39 40 41 40 40 40 40 39 38 38 37 37 37 38 38 38 38 38 38 38 39 40 40 41 40 39 38 39 39 38 37 37 36 36
13 13 14 15 16 18 19 19 19 20 21 22 23 23 23 23 24 27 31 35 38 40 41 41 42 41 40 40 40 40 42 43 42 42 43 43 43 43 41 38 36 38 41 41 38 37 38 38 38 37 37 39 41 41 40 40 40 40 40 40 39 38 37 37 38 39 39 39 40 39 38 39 39 39 39 40 40 40 40 39 38 37 37 37 38
15 16 16 17 18 20 20 21 21 21 21 21 23 22 22 22 19 17 19 25 30 35 40 43 43 43 42 41 40 40 42 44 43 43 44 43 44 43 40 39 41 42 43 42 40 39 41 42 42 40 39 40 41 41 40 40 39 39 40 40 40 40 39 38 39 41 40 40 40 41 40 41 41 40 38 37 38 39 39 39 38 37 36 37 38
17 18 18 19 20 21 21 21 21 22 21 22 24 24 23 23 21 17 18 21 21 23 28 32 36 40 43 45 44 42 41 41 41 43 44 43 44 45 41 39 41 44 44 43 41 40 42 44 44 44 42 41 42 41 41 41 40 40 40 41 41 42 42 42 42 43 43 42 41 42 42 41 41 41 39 37 37 38 38 38 38 38 38 39 40
19 19 19 20 20 21 21 20 21 21 22 24 26 26 27 28 28 27 27 26 24 22 22 22 23 26 30 37 43 46 48 47 44 42 42 42 43 46 43 39 39 42 44 44 42 40 42 43 44 45 44 43 42 42 42 42 43 43 43 43 44 44 45 45 46 46 45 44 43 44 43 41 41 41 40 38 38 38 38 37 37 38 40 41 41
20 20 21 21 21 22 21 21 22 22 23 24 25 27 28 29 29 28 27 26 25 25 24 24 24 22 22 24 29 35 43 48 46 43 42 41 41 43 45 44 42 42 44 46 45 44 44 45 45 46 46 46 45 45 45 45 45 46 46 46 47 47 47 48 48 48 48 47 45 44 44 43 43 42 41 39 38 38 37 37 38 41 41 40 41
20 21 22 22 23 23 23 23 23 23 24 24 25 26 26 26 26 26 25 24 23 23 23 23 24 24 24 24 24 25 28 32 35 37 40 42 42 42 44 46 45 43 43 46 48 48 47 46 45 46 47 48 49 49 48 48 48 48 49 49 48 48 48 49 48 48 48 47 46 45 44 43 43 42 41 41 40 39 37 38 39 42 42 41 42
20 21 22 23 23 23 23 23 23 23 24 24 24 25 25 24 24 23 23 23 23 22 22 22 22 23 24 24 25 26 26 26 27 27 30 34 37 39 42 45 46 46 45 45 47 48 47 46 47 48 49 50 51 52 52 51 51 51 51 51 50 50 49 49 48 47 46 45 45 45 44 44 44 43 42 41 40 39 38 38 41 43 43 43 43
21 22 22 23 24 24 23 23 23 23 23 24 24 24 23 23 23 22 22 23 23 23 22 22 21 22 23 24 25 26 28 28 28 26 26 27 28 30 33 36 40 43 44 44 46 48 49 49 49 48 48 49 51 52 52 52 52 53 54 53 51 50 49 48 47 46 45 44 43 43 44 44 44 43 43 42 42 40 38 39 42 45 44 43 43
21 22 23 24 24 24 23 23 23 23 23 23 24 23 23 23 23 23 24 24 24 24 24 24 23 23 23 25 26 27 28 30 30 30 29 29 29 29 29 29 30 32 35 37 39 41 42 43 42 42 43 44 46 47 49 49 51 53 54 53 51 50 49 47 46 45 44 43 43 44 44 45 45 45 44 43 43 42 41 41 44 46 46 45 46
22 22 23 24 24 24 23 23 23 23 23 23 24 24 24 24 25 25 25 25 25 25 26 26 26 26 26 26 27 28 30 31 32 32 33 33 33 33 33 32 32 32 32 34 34 35 36 37 37 38 38 39 40 42 43 43 45 47 49 48 47 47 47 47 46 46 45 45 45 45 46 46 46 46 46 45 45 45 45 45 47 48 48 49 50
23 23 24 24 24 25 24 24 24 25 25 25 25 25 26 26 26 26 26 27 27 27 28 28 28 28 28 28 29 29 31 32 33 34 35 36 36 36 36 36 36 36 37 38 38 39 39 40 40 40 40 40 40 41 41 40 41 42 44 44 43 44 45 46 46 46 46 46 47 48 48 48 48 47 47 47 47 47 48 48 49 50 50 51 51
26 25 25 26 26 26 27 27 27 27 27 28 28 28 28 28 29 29 29 29 29 29 29 30 30 30 30 30 31 31 32 32 34 34 35 36 37 37 37 38 38 38 38 38 39 40 40 41 41 42 42 43 43 43 43 43 43 43 44 44 44 44 46 47 47 48 48 48 49 50 50 50 50 50 49 49 50 50 50 50 51 51 52 52 52
28 28 28 28 28 28 29 29 29 29 30 30 30 30 30 30 30 30 31 31 31 31 31 31 31 31 32 32 32 32 32 33 34 35 35 36 37 37 38 38 39 39 39 39 39 40 40 41 41 41 42 43 43 44 45 45 45 46 46 47 47 48 48 49 50 51 52 52 52 53 53 53 53 53 53 53 53 53 53 53 53 53 54 54 54
29 30 30 30 30 30 30 31 31 31 31 31 31 31 31 31 31 30 31 31 31 31 31 32 32 32 32 33 33 33 34 34 35 36 36 37 38 39 40 40 40 41 42 42 42 42 43 43 43 44 44 44 44 45 46 47 48 48 49 50 50 51 52 52 53 54 54 55 55 56 56 57 57 57 58 57 57 57 57 57 57 57 56 57 57
30 30 31 31 31 32 32 32 31 31 31 31 31 31 31 31 31 31 31 31 31 31 32 32 32 33 33 34 34 35 35 36 36 37 38 39 39 40 41 42 42 43 44 45 45 45 46 46 46 47 47 47 47 47 48 48 50 50 51 52 53 54 55 55 56 57 58 58 59 59 60 60 60 61 61 61 61 61 61 61 61 61 60 60 60
29 29 30 30 31 31 31 31 31 31 31 31 31 31 31 31 32 32 32 32 32 33 33 33 34 34 34 34 35 36 36 37 38 39 39 40 41 41 42 43 44 44 45 46 47 47 48 48 49 49 50 50 50 50 49 50 51 51 52 53 55 56 57 58 59 60 61 62 62 62 63 63 64 64 64 64 64 64 63 63 63 62 62 62 62
28 28 28 29 29 29 30 30 30 31 31 31 31 31 31 31 31 32 32 33 33 33 33 33 33 33 33 33 34 34 35 36 37 37 38 39 40 41 42 43 44 45 46 46 47 48 49 49 50 50 51 51 52 52 52 52 52 53 53 53 54 55 56 58 60 61 62 63 64 65 65 65 66 66 66 66 66 66 65 65 64 64 63 63 62
27 27 27 27 27 28 28 29 29 30 30 31 31 31 32 32 31 31 31 32 32 32 31 31 31 31 32 32 33 33 34 34 35 36 36 38 39 40 41 42 43 44 45 46 47 48 49 50 50 51 52 52 53 54 54 54 54 55 55 55 55 55 56 56 57 59 60 61 62 64 65 66 67 67 67 67 67 67 67 66 66 66 65 65 64
26 26 26 26 26 27 27 27 27 27 28 28 29 29 30 30 31 31 31 31 32 32 31 31 31 31 32 32 33 33 34 35 35 36 37 38 39 41 42 43 44 45 46 46 47 48 49 50 51 52 53 54 54 55 55 56 56 56 57 57 57 57 58 58 58 58 59 59 60 61 62 63 64 65 66 67 68 68 68 68 67 67 67 66 66
24 24 25 25 25 25 25 25 26 26 26 27 27 28 29 29 30 31 31 31 32 33 33 33 33 33 34 34 35 36 37 38 39 40 40 41 42 43 44 45 46 47 48 48 49 50 50 51 52 53 54 55 56 57 58 58 59 59 59 60 60 60 60 61 61 61 61 62 61 61 61 61 61 62 63 64 65 66 67 67 68 68 68 67 67
23 23 23 23 24 25 25 26 26 27 28 28 29 29 30 31 31 32 33 33 34 35 36 36 36 36 37 37 37 39 40 41 43 44 45 46 47 48 48 49 49 49 50 51 51 52 53 54 55 56 57 57 58 59 60 61 62 63 63 64 64 64 64 65 65 65 65 65 65 65 65 64 64 63 63 63 63 64 64 65 66 67 67 67 67
22 22 23 24 25 26 27 28 28 29 30 30 31 31 32 33 33 34 35 36 36 36 37 37 38 38 38 38 39 41 42 44 45 47 47 48 49 50 51 52 53 54 54 55 55 56 56 57 58 59 60 60 62 63 64 64 65 66 66 67 68 68 68 69 69 69 69 69 69 69 69 69 68 67 66 66 66 65 65 65 64 65 65 66 66
24 24 26 27 28 29 30 30 30 30 31 31 32 33 33 34 35 35 36 37 37 38 38 39 40 41 41 42 43 44 45 46 47 49 50 50 50 51 52 53 54 55 56 57 58 59 61 61 62 62 62 63 64 66 67 68 69 69 70 70 71 71 71 72 72 72 72 72 72 72 72 72 71 71 70 70 69 68 68 67 66 65 65 65 65
27 28 29 30 30 31 31 31 31 32 33 34 35 35 36 36 37 37 38 39 39 40 41 43 44 45 46 47 47 48 48 49 50 51 53 53 53 53 53 54 54 55 56 57 58 60 61 63 64 65 65 65 66 67 68 69 70 71 72 73 74 74 74 74 75 75 74 74 74 74 74 74 73 73 72 72 71 71 70 69 68 67 66 65 65
29 30 30 31 31 32 33 33 34 35 36 37 38 39 39 40 40 41 41 42 42 43 44 45 47 48 48 50 51 51 52 53 54 54 56 57 56 56 56 56 56 57 57 58 59 60 61 62 63 64 64 65 66 68 68 69 70 70 71 72 73 73 74 75 76 76 76 75 75 74 74 74 74 74 73 73 72 71 71 70 69 68 67 66 65
30 30 31 32 33 34 35 36 37 38 39 40 41 41 42 42 43 43 44 44 45 45 46 48 49 50 51 52 52 53 54 55 55 56 57 58 58 59 59 59 59 59 58 59 59 59 59 60 61 61 61 61 62 63 65 66 67 68 69 70 71 72 73 74 75 76 76 76 76 76 76 75 74 74 73 72 71 70 70 69 69 68 67 66 65
30 31 32 33 34 35 36 37 38 38 39 40 41 41 42 43 44 44 45 46 47 48 49 50 51 52 53 54 54 55 55 56 56 57 57 58 58 59 59 59 59 59 59 59 58 57 56 57 58 58 58 58 58 59 60 61 62 63 64 66 68 70 71 73 74 75 76 77 77 77 77 77 76 75 73 72 70 68 67 67 66 66 65 64 64
31 32 33 33 34 35 36 36 37 38 39 40 41 42 43 44 45 46 47 48 49 50 51 51 52 53 55 56 56 57 57 57 57 57 57 57 58 58 59 58 57 56 56 56 55 54 54 54 55 55 56 57 57 57 57 58 58 59 60 61 62 64 66 68 70 71 73 74 74 75 75 76 76 75 74 73 72 70 68 66 65 64 63 63 62
33 34 34 35 35 36 36 37 38 39 40 42 43 44 45 46 47 48 49 50 51 52 52 53 54 54 55 57 57 58 58 58 58 57 57 57 57 57 57 56 55 55 55 55 55 54 54 54 54 55 56 56 56 56 56 57 57 57 58 58 58 59 60 61 62 64 65 66 67 68 68 69 69 69 70 70 70 69 68 67 65 64 63 62 61
34 35 36 36 37 37 38 39 40 42 43 44 45 46 47 48 49 49 50 51 52 53 54 55 56 56 56 57 57 58 57 57 57 57 56 56 55 55 54 54 54 55 55 56 56 56 55 55 55 56 56 56 56 56 55 55 55 55 54 54 53 53 54 55 56 57 57 57 58 58 58 58 58 59 60 61 61 62 62 62 62 61 61 60 59
35 36 37 38 39 40 41 42 43 44 45 46 47 48 48 49 50 52 53 54 54 55 55 56 56 56 56 56 56 56 56 56 56 56 55 55 54 53 53 53 54 55 56 56 56 56 56 56 56 56 57 57 57 56 55 55 54 53 52 51 51 52 52 52 52 52 52 51 51 50 50 50 50 50 51 51 52 53 54 55 55 56 55 55 55
37 38 39 40 41 42 43 44 44 45 46 47 48 49 50 51 52 53 53 53 54 54 54 55 55 55 55 55 55 55 55 55 54 54 54 53 53 53 53 53 53 55 56 56 57 57 57 56 56 56 57 57 57 57 56 55 54 53 52 52 52 52 51 51 51 50 49 49 48 48 47 47 47 46 45 45 45 46 47 48 49 50 50 50 50
39 40 41 41 42 43 43 44 45 46 47 48 49 50 50 51 51 51 51 51 52 53 53 53 53 54 54 54 54 54 53 53 53 52 52 52 52 53 53 54 54 55 55 56 57 57 57 57 57 57 57 57 57 57 56 56 55 54 53 52 52 51 51 50 50 49 49 49 48 47 47 46 46 45 45 44 44 44 44 44 44 45 45 45 45
40 41 41 42 42 43 44 45 46 47 47 48 49 49 49 49 49 50 50 50 51 52 52 52 53 53 53 53 53 52 52 51 51 52 52 52 52 53 54 55 56 56 57 57 58 58 58 57 57 57 57 57 56 56 56 55 54 54 53 52 51 50 49 49 48 48 48 48 48 47 47 46 46 46 46 46 46 45 44 44 43 43 43 42 42
Wind_Direction
235 235 238 239 238 240 243 243 244 244 244 246 248 249 250 251 251 251 251 253 254 253 252 252 253 253 254 256 256 256 257 258 258 257 258 259 259 259 260 262 261 260 261 264 265 268 273 276 279 279 280 280 279 277 276 275 275 275 274 275 276 276 275 274 276 280 285 286 285 283 284 284 284 286 288 290 294 296 298 301 303 304 306 307 309
234 233 237 240 239 239 242 243 245 246 246 247 247 248 249 248 248 248 249 250 250 252 251 251 252 253 252 254 255 256 255 254 254 254 253 254 257 259 260 261 261 261 263 265 266 266 268 271 275 279 283 285 285 287 287 285 284 281 277 276 276 276 277 277 278 284 289 290 290 289 288 289 290 290 291 293 296 298 300 301 301 302 303 303 303
232 230 234 238 238 239 242 245 247 249 250 250 250 250 249 248 248 248 249 250 249 249 249 248 249 250 250 250 251 252 253 254 254 254 253 252 254 256 257 259 262 264 267 269 270 271 272 272 272 273 278 282 284 287 289 287 285 281 275 274 274 276 279 282 283 283 284 286 290 293 293 293 295 296 297 299 300 301 302 303 303 304 304 303 302
234 234 238 241 240 240 242 245 247 250 252 254 254 254 253 252 250 249 250 252 253 251 250 250 248 248 249 248 248 249 250 251 252 253 254 255 255 255 257 260 262 264 268 270 270 272 274 272 270 270 273 276 279 284 287 287 286 283 278 276 276 278 281 284 285 282 280 282 284 288 292 294 296 299 301 303 303 304 305 306 308 308 308 307 306
238 237 241 246 247 246 247 248 249 251 253 256 258 258 259 258 256 254 252 254 256 257 256 255 253 252 251 250 250 250 251 252 254 255 255 256 256 256 257 259 262 264 267 268 269 270 272 273 275 276 277 278 280 282 282 284 285 285 282 280 280 280 280 281 282 281 279 279 280 282 284 288 292 296 299 302 302 302 303 305 307 307 307 309 308
243 243 246 250 251 250 250 250 252 253 254 258 261 263 266 266 264 263 261 258 259 261 261 260 259 257 255 255 254 254 254 255 256 258 258 258 258 258 258 259 262 265 267 268 270 272 273 275 278 280 281 282 283 282 280 283 287 288 289 287 285 284 283 281 281 282 280 278 278 278 277 280 287 290 293 297 298 300 303 303 301 301 302 304 305
246 249 250 251 252 252 250 250 252 253 253 255 258 262 266 267 267 267 265 264 264 264 265 265 263 262 261 260 259 258 258 258 258 257 257 258 259 259 259 261 263 264 264 267 271 272 273 275 278 279 278 277 279 280 280 281 282 283 286 288 285 283 282 281 280 278 278 277 275 274 273 275 280 284 286 288 290 293 296 297 297 297 298 300 301
247 251 251 250 252 253 253 254 256 257 258 258 258 260 261 260 264 268 266 266 265 263 265 266 266 266 266 266 266 264 259 258 258 257 256 257 260 260 260 260 260 260 260 262 265 268 272 274 277 278 276 273 276 278 278 279 279 279 280 281 279 277 278 280 282 280 278 278 276 275 275 276 276 279 280 280 282 284 284 287 290 289 291 296 298
247 252 252 250 251 252 254 256 255 253 256 260 262 264 262 257 261 267 267 267 266 265 265 266 268 268 267 266 267 267 263 259 258 258 258 258 258 260 261 261 259 259 260 262 263 265 269 270 271 275 275 272 273 275 274 273 275 277 276 275 274 275 277 280 283 282 279 278 278 278 279 279 278 277 276 276 280 281 279 280 281 279 285 294 298
244 248 251 251 251 253 254 253 251 250 253 257 257 258 258 256 258 260 260 260 264 268 267 265 266 266 265 263 261 263 265 262 258 258 258 256 254 254 259 263 263 261 261 264 265 265 267 269 268 270 271 271 271 273 272 271 271 273 274 274 274 274 274 275 278 279 279 278 279 281 282 282 282 280 278 277 279 279 279 279 279 280 287 295 299
245 247 252 253 252 254 255 253 253 255 257 259 256 253 254 254 255 256 254 250 254 262 266 266 267 266 265 264 260 258 260 260 259 260 259 257 255 253 256 260 262 260 260 262 262 263 265 267 267 265 266 268 269 269 272 274 275 275 275 275 276 274 273 272 272 275 277 277 278 282 284 283 283 282 280 280 280 280 282 284 285 287 291 295 298
244 246 250 252 253 257 258 254 255 258 261 262 261 258 257 256 255 255 255 251 250 253 256 263 270 270 265 262 259 256 256 257 258 259 258 257 256 255 255 257 259 260 260 260 260 260 261 264 265 265 266 268 266 266 270 275 277 278 278 278 277 276 274 271 269 268 270 271 273 278 282 282 283 284 283 282 282 282 283 284 286 287 290 295 298
242 244 248 251 255 259 260 258 260 263 265 265 264 261 260 258 255 252 253 254 254 253 250 253 259 261 259 259 259 257 256 254 254 255 256 256 256 255 254 254 255 256 257 260 261 260 260 263 264 265 268 272 272 270 270 272 273 275 276 276 276 277 276 274 272 270 270 270 271 273 275 276 276 278 280 281 282 282 282 282 282 283 286 290 293
242 246 250 254 258 262 264 265 267 268 269 270 269 265 261 258 255 253 252 254 255 255 254 252 251 251 253 255 256 256 256 255 255 256 257 256 255 254 254 253 253 252 253 260 263 263 263 264 263 263 267 272 273 269 266 266 265 266 269 272 274 276 277 276 276 274 274 274 272 269 269 271 272 273 275 277 279 280 281 281 281 282 284 286 286
243 250 254 257 260 262 263 264 265 266 268 272 274 272 264 258 255 254 254 255 256 256 256 255 254 253 254 254 254 255 255 255 255 256 256 256 257 256 255 254 253 251 252 257 260 261 263 265 265 268 271 272 270 267 265 263 262 263 266 269 271 273 274 275 275 275 275 275 273 270 268 270 271 271 272 276 278 278 280 281 282 283 284 284 284
237 245 251 255 258 259 261 262 263 264 267 270 275 279 274 264 258 256 254 254 254 255 255 256 256 256 257 258 258 257 256 256 257 257 257 257 258 258 256 255 255 254 252 253 255 255 257 262 267 271 272 270 268 267 265 263 263 263 264 266 268 270 271 271 272 273 274 274 274 274 273 273 272 272 274 277 277 276 277 279 281 282 282 282 283
232 239 246 253 261 267 271 272 271 270 271 273 278 283 282 272 261 255 254 252 252 253 253 254 256 257 258 259 259 260 260 260 260 261 260 259 259 260 259 258 259 259 255 253 254 254 253 254 259 263 266 267 266 266 265 264 263 263 264 264 266 268 270 269 269 271 273 274 274 275 276 276 275 276 278 279 278 276 276 276 278 280 280 281 282
258 259 262 268 275 279 282 283 283 282 281 280 280 281 283 281 268 256 252 252 252 253 254 254 255 256 256 258 261 263 264 262 262 263 263 262 260 261 262 261 260 261 259 257 256 257 256 255 257 260 263 264 264 265 264 264 264 264 265 265 265 266 267 267 268 271 272 273 274 274 275 275 274 274 274 275 274 274 275 276 277 278 279 280 280
279 277 276 277 278 280 283 285 286 288 286 281 278 280 284 286 280 268 264 263 257 256 258 257 255 255 255 257 261 263 264 263 263 265 267 265 261 259 262 263 260 258 259 259 258 259 259 259 261 265 265 263 263 263 264 264 264 265 265 266 265 265 265 264 267 271 272 273 273 273 273 273 272 270 268 269 271 273 275 277 279 280 280 280 279
284 281 279 280 280 280 283 284 285 287 285 280 278 281 282 282 281 284 291 288 278 272 271 268 264 260 257 256 257 260 264 266 267 268 268 267 263 258 259 264 263 260 259 259 260 262 262 261 262 264 264 263 263 263 264 265 266 265 266 266 266 266 266 266 267 270 272 272 272 272 271 273 274 272 271 271 274 277 278 280 281 282 282 281 279
280 281 280 279 280 281 282 284 285 286 286 284 283 284 285 286 289 292 296 296 294 293 294 294 289 280 271 263 260 260 263 266 269 270 267 265 264 259 257 261 265 265 262 260 261 263 263 263 263 263 263 264 264 264 264 265 266 266 266 266 267 268 269 270 271 272 273 273 273 271 270 271 272 273 272 274 277 278 277 279 281 280 281 282 282
272 275 276 276 277 278 280 282 284 285 287 287 288 288 290 293 297 300 301 301 300 299 298 298 298 298 296 289 278 271 267 266 267 267 263 263 264 262 259 259 264 268 266 261 260 263 264 265 266 266 265 266 267 266 265 266 267 267 267 267 268 268 269 270 271 273 274 275 275 273 271 270 269 270 270 272 275 276 277 279 282 283 282 283 284
266 268 270 272 273 275 277 279 281 282 283 283 286 290 292 294 297 299 299 299 299 299 298 296 294 293 295 296 295 290 284 278 274 268 262 261 263 262 260 259 262 267 268 263 260 263 265 267 268 268 267 266 266 267 267 268 269 269 269 269 270 270 270 269 269 270 272 273 274 273 272 270 268 268 268 269 271 273 275 277 279 279 279 279 280
264 264 265 267 269 272 274 275 276 277 277 278 282 285 287 289 291 293 293 292 292 293 293 292 290 289 288 287 286 287 289 289 287 281 270 265 264 264 262 261 262 265 268 265 262 263 266 267 269 270 269 267 266 267 268 269 269 268 268 268 269 269 269 268 267 267 267 269 270 270 270 269 269 269 268 269 269 269 270 273 274 273 274 275 276
262 262 262 263 265 267 268 269 268 268 271 274 277 279 281 283 285 284 284 284 283 284 286 286 285 283 281 280 279 279 280 281 283 283 279 274 272 273 272 270 267 266 266 266 264 264 266 269 270 271 270 269 268 269 269 269 268 266 265 266 267 267 267 266 265 264 265 265 266 267 268 268 268 269 269 269 270 270 269 270 272 272 272 272 272
259 260 260 261 262 263 264 264 263 264 265 268 270 271 272 274 275 275 275 275 274 274 276 277 278 278 276 275 274 273 273 274 275 276 277 277 277 278 279 277 275 272 269 268 267 266 266 267 267 267 267 268 269 268 268 268 267 264 262 262 264 264 265 265 264 264 264 265 266 267 268 268 269 269 269 269 270 270 268 266 267 268 269 268 269
257 258 259 260 261 262 262 262 263 263 264 264 264 265 266 267 268 269 270 270 271 271 271 271 272 273 272 271 271 270 269 270 271 272 273 274 275 276 276 276 275 274 273 272 271 270 269 269 269 270 270 271 271 271 271 271 270 267 265 265 264 265 265 266 266 266 266 268 269 270 270 270 270 271 271 271 270 270 269 267 267 268 269 269 271
258 257 257 258 259 260 261 262 263 264 265 265 265 264 265 266 267 268 268 269 270 271 271 271 271 271 270 270 269 268 268 268 269 270 271 272 273 274 275 276 276 275 274 274 274 274 274 274 275 275 276 275 276 276 276 276 275 273 272 271 269 268 269 269 269 269 269 270 272 273 273 273 273 273 273 273 273 272 272 271 270 271 271 272 273
261 259 259 259 259 260 261 262 263 265 266 267 268 268 267 267 268 269 269 270 270 270 270 271 270 270 270 270 269 268 268 267 268 268 270 271 272 273 274 275 276 276 276 276 276 276 276 276 277 277 276 276 276 276 276 275 275 274 274 273 272 271 270 271 271 271 271 271 271 272 273 273 274 274 274 274 274 274 273 273 273 273 274 274 274
261 262 262 262 262 262 263 263 265 266 268 269 269 270 270 270 269 270 270 270 270 270 270 271 271 271 271 271 271 271 270 270 269 269 270 270 271 272 273 274 275 276 277 277 277 277 277 277 277 276 276 275 275 274 274 273 273 272 272 272 272 271 271 271 271 271 271 271 271 272 272 273 273 274 275 275 275 275 275 275 275 275 275 275 275
259 260 262 263 265 265 266 266 267 268 269 270 271 271 271 272 272 272 271 271 272 272 273 273 273 274 274 275 275 275 275 275 274 274 274 273 273 274 275 275 276 276 277 278 279 279 279 279 278 277 276 275 275 274 273 272 272 271 270 270 270 270 270 270 270 270 270 271 271 271 272 272 273 273 274 275 275 276 276 276 276 276 276 276 276
257 259 260 262 264 266 268 269 270 270 271 271 272 273 274 275 275 276 276 276 276 276 276 277 277 277 277 277 277 278 278 278 278 277 277 277 277 277 277 278 278 278 278 278 279 279 280 280 280 280 279 278 277 275 274 273 272 271 271 270 270 270 270 269 269 270 270 270 271 271 271 272 272 273 273 274 275 276 277 277 277 277 278 277 277
258 259 260 262 263 265 268 270 272 274 275 276 276 277 278 278 279 280 280 280 279 279 279 279 280 280 280 280 279 279 279 278 278 279 279 279 279 279 279 279 279 279 279 278 278 279 279 279 280 280 280 280 280 279 278 277 276 274 273 272 271 270 270 270 270 271 271 271 272 272 272 273 273 273 274 274 275 276 277 277 278 278 278 278 278
262 263 264 265 266 267 268 270 272 273 275 277 278 279 279 280 280 280 281 281 281 281 281 281 281 282 282 282 282 282 282 282 281 281 281 281 281 281 281 281 281 280 280 280 280 280 280 280 280 281 281 281 281 281 281 281 280 279 278 277 276 274 273 272 272 272 272 272 273 273 274 274 275 275 276 276 277 277 277 278 278 278 278 278 278
265 267 268 269 270 271 271 272 272 273 273 274 275 276 278 278 278 279 279 280 280 281 281 281 282 282 282 282 282 283 284 284 285 285 284 284 284 283 283 282 282 282 282 282 282 282 282 282 282 282 282 282 282 282 282 282 282 282 282 281 281 280 279 278 277 275 275 274 274 274 274 275 276 276 277 278 278 279 279 279 279 279 279 279 279
267 268 269 269 270 271 272 273 273 273 273 273 274 274 275 275 276 277 278 279 279 279 279 279 280 280 281 282 283 283 284 284 284 285 285 285 285 284 284 283 283 283 282 282 282 282 282 281 282 282 282 282 282 282 282 282 282 282 282 282 282 282 282 281 281 280 279 278 277 277 276 276 276 276 277 277 278 279 280 280 281 281 281 281 281
264 265 267 267 268 268 269 270 271 271 272 272 273 274 274 275 275 276 276 277 278 279 279 278 278 279 279 280 281 283 284 285 285 285 285 285 285 284 284 284 283 283 282 282 282 282 282 281 281 281 281 281 282 282 282 282 282 282 282 282 281 281 281 281 281 281 281 281 280 280 280 279 279 278 278 278 277 278 278 279 279 280 281 281 281
260 261 262 263 265 266 267 268 269 271 272 273 274 275 275 276 276 277 276 276 277 277 277 278 278 278 278 279 281 282 283 284 285 285 286 286 286 286 286 285 284 284 283 282 281 281 281 281 282 282 282 282 282 281 281 281 282 282 282 282 281 281 281 281 281 281 280 280 280 280 280 280 280 280 279 279 278 278 277 277 278 278 278 279 280
260 261 263 264 265 266 268 269 270 271 272 273 274 275 276 277 278 279 279 279 279 279 279 279 279 279 280 281 283 284 284 284 284 284 284 284 284 285 285 285 285 285 285 284 284 283 282 281 281 281 281 281 281 281 281 281 281 281 281 281 281 280 280 280 280 280 280 280 280 280 280 280 279 279 279 278 278 277 277 277 277 277 277 277 278
263 265 267 268 269 269 269 269 269 270 270 272 273 275 277 278 280 281 282 282 282 283 283 283 282 283 285 286 286 286 286 285 285 284 284 283 283 282 282 282 282 283 283 283 284 284 283 283 282 281 281 281 280 280 279 279 279 279 279 279 279 279 279 279 279 279 279 279 279 279 279 279 279 278 278 278 277 277 277 276 276 276 276 276 276
268 268 269 270 271 270 270 269 269 269 270 272 274 276 279 281 282 283 284 284 285 285 285 285 285 287 288 288 288 288 288 287 287 286 286 285 285 284 284 283 282 282 282 281 281 281 281 281 281 281 282 281 281 280 279 279 278 278 278 278 278 278 278 278 278 278 277 278 278 278 278 277 277 277 277 278 278 277 277 277 276 276 275 275 275
275 274 274 275 275 274 273 273 273 274 275 277 279 280 282 284 285 286 286 286 286 286 286 286 286 287 288 288 289 289 289 289 289 289 289 289 289 288 287 286 285 285 284 284 283 282 282 281 280 280 280 280 280 280 280 279 279 279 278 277 277 277 276 276 277 277 277 277 277 277 278 277 277 277 277 277 277 277 277 277 277 277 276 276 276
280 280 280 279 279 279 279 279 279 280 281 282 283 284 285 286 286 287 287 287 286 286 286 286 287 287 288 288 289 289 289 289 289 290 290 290 290 290 289 289 289 288 287 286 285 285 284 283 282 282 281 280 279 279 279 279 279 279 279 279 278 278 277 276 276 276 276 276 276 276 277 278 278 278 278 278 277 277 277 277 277 277 277 277 277
282 282 283 283 283 283 283 283 283 284 284 285 285 286 286 286 287 287 287 287 287 287 287 288 288 289 289 290 290 290 290 290 290 290 290 290 290 290 290 290 290 289 288 286 286 285 284 284 284 284 284 283 282 281 280 280 280 280 280 280 280 279 278 277 277 276 275 275 275 275 275 276 277 278 278 278 278 278 277 277 277 277 276 276 276
285 285 285 286 286 286 285 286 286 286 287 287 287 288 288 288 288 288 288 288 288 289 289 289 290 290 291 291 291 291 291 291 291 291 291 291 290 290 290 290 289 287 286 286 286 285 285 284 285 285 285 284 284 284 284 284 284 284 284 283 282 282 281 280 278 277 276 276 275 275 275 275 275 276 277 277 277 278 277 277 277 277 276 276 275
287 287 287 287 287 286 287 287 287 288 289 289 289 290 289 289 289 289 289 290 290 290 290 291 291 291 292 292 292 292 292 292 292 291 291 290 289 289 289 289 287 286 285 285 285 286 286 286 286 286 285 286 286 286 287 288 288 288 287 287 286 286 285 284 282 281 280 279 278 278 278 277 277 277 277 276 276 277 277 276 276 276 276 275 275
287 287 288 287 287 287 288 289 289 290 290 290 290 291 290 290 291 290 291 291 291 292 292 292 292 292 292 292 292 292 292 292 291 291 290 289 289 288 287 287 285 285 285 285 286 287 287 288 288 287 286 286 286 286 287 288 289 289 289 290 289 288 288 287 287 286 285 284 283 282 281 281 280 279 279 279 278 278 277 277 276 276 275 275 274
289 289 289 289 290 290 290 290 291 291 291 291 291 291 291 291 291 291 292 292 292 292 292 292 292 292 292 292 292 292 292 291 291 290 290 289 289 288 286 286 285 286 286 287 287 288 288 288 287 287 286 286 286 287 287 288 288 288 289 289 288 288 289 289 288 287 287 286 285 284 283 283 283 282 281 281 280 279 278 278 277 276 276 275 274
291 291 291 291 291 291 291 291 291 291 291 291 291 291 291 291 291 291 291 292 291 292 292 292 293 293 293 293 293 292 292 292 291 291 290 290 289 288 287 287 287 287 288 288 289 288 288 288 287 286 286 285 285 286 286 286 286 287 287 287 287 287 288 288 288 287 286 286 285 284 284 283 283 283 283 283 283 282 281 280 278 277 276 276 274
292 292 291 291 291 291 291 291 291 291 291 291 291 291 291 291 291 292 292 292 293 293 294 294 294 294 294 294 293 293 293 292 292 291 291 290 289 289 288 288 287 287 287 288 288 288 288 287 287 286 285 284 284 284 283 283 284 284 284 284 285 286 285 285 286 286 285 285 284 284 283 283 282 282 282 283 284 284 284 283 281 278 276 275 274
292 292 292 292 292 292 292 292 292 292 292 292 292 292 292 292 293 293 294 294 295 295 295 295 295 294 294 294 294 293 293 292 292 291 290 289 289 288 288 288 287 287 287 287 287 288 288 287 287 286 285 284 283 283 282 282 282 282 283 283 283 283 283 283 284 284 284 283 283 283 283 283 282 281 282 283 283 283 283 283 282 279 275 272 271
Height
5924 5925 5926 5927 5928 5929 5929 5930 5932 5933 5933 5934 5935 5936 5937 5937 5938 5939 5939 5939 5939 5940 5940 5940 5941 5941 5942 5942 5943 5943 5943 5944 5944 5945 5945 5946 5946 5946 5947 5947 5947 5947 5947 5947 5947 5947 5947 5946 5946 5945 5945 5945 5946 5946 5946 5946 5946 5946 5946 5946 5946 5946 5946 5945 5945 5944 5944 5943 5943 5943 5943 5942 5941 5940 5940 5939 5939 5938 5938 5937 5937 5936 5935 5935 5934
5923 5924 5924 5925 5925 5926 5927 5929 5930 5931 5932 5933 5934 5934 5935 5936 5936 5937 5937 5937 5938 5938 5938 5939 5939 5940 5940 5941 5941 5942 5943 5943 5943 5944 5945 5945 5945 5945 5946 5946 5946 5946 5946 5946 5946 5946 5946 5945 5945 5945 5945 5944 5944 5944 5945 5945 5945 5945 5945 5944 5945 5945 5944 5944 5944 5943 5943 5942 5942 5942 5942 5941 5940 5940 5939 5938 5938 5938 5937 5936 5936 5935 5934 5933 5933
5922 5923 5924 5923 5923 5924 5926 5927 5927 5929 5930 5931 5932 5932 5933 5934 5934 5935 5935 5935 5936 5936 5936 5936 5937 5938 5938 5939 5939 5940 5941 5941 5942 5942 5943 5944 5944 5944 5945 5945 5945 5945 5945 5946 5945 5945 5945 5945 5944 5944 5944 5944 5943 5943 5944 5944 5944 5944 5944 5943 5943 5943 5943 5943 5943 5942 5942 5942 5941 5940 5940 5940 5939 5939 5938 5937 5937 5936 5936 5935 5934 5934 5933 5932 5931
5921 5922 5922 5921 5922 5923 5924 5925 5926 5927 5928 5929 5930 5930 5931 5932 5933 5933 5934 5934 5934 5934 5935 5935 5935 5936 5936 5936 5937 5938 5939 5939 5940 5941 5941 5942 5942 5943 5943 5944 5944 5944 5944 5945 5944 5944 5944 5944 5944 5943 5943 5943 5942 5942 5942 5942 5942 5942 5943 5942 5942 5942 5941 5941 5942 5941 5941 5941 5940 5939 5938 5938 5938 5937 5936 5936 5935 5934 5934 5933 5932 5932 5931 5931 5929
5920 5921 5920 5920 5921 5922 5923 5924 5925 5926 5927 5928 5928 5929 5930 5931 5931 5932 5932 5933 5933 5933 5934 5934 5934 5934 5934 5935 5935 5936 5937 5938 5938 5939 5940 5940 5941 5942 5942 5942 5942 5942 5943 5943 5943 5943 5943 5943 5943 5943 5942 5942 5941 5941 5941 5941 5940 5941 5941 5941 5941 5940 5940 5940 5940 5940 5940 5939 5938 5937 5936 5935 5935 5935 5934 5934 5933 5933 5932 5931 5930 5930 5929 5929 5928
5917 5918 5919 5919 5920 5920 5921 5923 5924 5925 5927 5927 5928 5928 5929 5930 5930 5931 5931 5932 5932 5932 5933 5933 5933 5933 5933 5934 5934 5935 5935 5936 5937 5938 5938 5938 5939 5940 5940 5940 5940 5940 5940 5941 5942 5942 5942 5942 5942 5942 5941 5941 5940 5940 5939 5939 5939 5939 5939 5939 5939 5939 5939 5939 5938 5938 5938 5937 5937 5936 5934 5934 5933 5933 5933 5932 5931 5931 5931 5930 5929 5928 5927 5926 5925
5913 5915 5916 5917 5917 5918 5919 5920 5922 5924 5925 5926 5926 5927 5928 5928 5928 5929 5929 5930 5931 5931 5932 5932 5932 5932 5933 5933 5934 5934 5935 5935 5935 5936 5936 5936 5937 5937 5937 5938 5938 5937 5938 5938 5939 5939 5940 5940 5941 5940 5940 5939 5939 5938 5938 5937 5937 5938 5937 5937 5937 5937 5937 5936 5936 5937 5936 5935 5935 5934 5933 5932 5932 5930 5931 5931 5929 5929 5929 5928 5927 5926 5924 5923 5922
5910 5911 5913 5914 5914 5915 5917 5919 5922 5923 5923 5924 5924 5925 5926 5926 5926 5926 5926 5927 5928 5929 5930 5930 5930 5931 5932 5932 5933 5933 5933 5933 5933 5933 5934 5935 5935 5935 5935 5935 5935 5935 5935 5935 5936 5937 5937 5938 5937 5937 5937 5937 5936 5936 5936 5935 5934 5935 5935 5935 5935 5934 5934 5935 5934 5934 5933 5932 5932 5932 5931 5930 5929 5928 5928 5928 5927 5927 5926 5924 5924 5924 5923 5921 5920
5907 5908 5910 5911 5912 5914 5916 5918 5919 5920 5920 5920 5922 5923 5924 5925 5925 5924 5924 5925 5925 5926 5927 5927 5928 5929 5930 5930 5931 5930 5930 5931 5930 5930 5931 5932 5933 5933 5933 5933 5932 5932 5932 5933 5934 5934 5935 5935 5934 5934 5935 5935 5934 5933 5933 5933 5932 5932 5932 5932 5932 5932 5932 5933 5931 5931 5931 5930 5929 5929 5928 5928 5928 5926 5925 5924 5924 5924 5923 5921 5921 5921 5920 5920 5918
5905 5905 5907 5908 5910 5912 5914 5915 5915 5915 5915 5916 5918 5919 5920 5921 5922 5922 5922 5923 5923 5923 5923 5924 5925 5925 5926 5927 5927 5927 5927 5927 5927 5926 5927 5929 5929 5929 5930 5929 5930 5930 5930 5931 5931 5931 5931 5931 5931 5931 5931 5930 5930 5930 5929 5929 5929 5930 5929 5929 5929 5929 5929 5929 5928 5927 5928 5927 5926 5925 5925 5926 5925 5924 5923 5921 5921 5921 5920 5919 5919 5918 5917 5917 5916
5903 5903 5904 5905 5907 5910 5911 5911 5911 5910 5910 5911 5913 5914 5915 5916 5918 5918 5918 5919 5920 5920 5920 5921 5921 5922 5923 5923 5922 5923 5923 5922 5922 5923 5924 5925 5925 5926 5927 5926 5927 5927 5928 5929 5929 5928 5928 5927 5927 5928 5928 5926 5926 5927 5926 5925 5926 5927 5927 5926 5925 5924 5924 5925 5925 5924 5924 5924 5924 5923 5922 5922 5922 5921 5920 5919 5918 5918 5917 5916 5915 5914 5914 5914 5913
5899 5900 5900 5901 5903 5905 5907 5907 5906 5906 5906 5907 5909 5911 5912 5913 5914 5914 5914 5914 5915 5916 5917 5919 5918 5917 5918 5917 5917 5919 5919 5918 5919 5919 5920 5920 5921 5922 5924 5924 5924 5924 5925 5926 5926 5925 5924 5924 5923 5925 5925 5924 5924 5924 5923 5923 5924 5924 5924 5923 5921 5920 5920 5921 5921 5920 5919 5919 5920 5920 5919 5918 5919 5918 5917 5916 5916 5915 5913 5912 5911 5911 5911 5910 5910
5895 5896 5896 5897 5898 5899 5901 5902 5903 5902 5903 5904 5905 5907 5908 5908 5909 5910 5909 5909 5911 5912 5913 5913 5912 5911 5912 5913 5914 5915 5914 5914 5914 5915 5915 5916 5917 5918 5919 5919 5920 5920 5922 5923 5922 5922 5922 5921 5921 5922 5922 5921 5920 5920 5921 5920 5920 5919 5919 5919 5918 5917 5916 5917 5917 5916 5916 5916 5917 5916 5914 5913 5914 5914 5913 5912 5913 5912 5910 5909 5908 5907 5907 5907 5906
5892 5893 5893 5894 5895 5896 5897 5898 5898 5899 5899 5899 5900 5901 5902 5902 5903 5904 5904 5905 5907 5907 5908 5908 5907 5907 5908 5909 5911 5911 5909 5909 5910 5910 5911 5912 5912 5913 5914 5915 5915 5916 5918 5919 5919 5919 5919 5919 5918 5917 5918 5918 5917 5916 5916 5916 5915 5914 5914 5914 5914 5914 5913 5913 5913 5912 5912 5912 5913 5913 5911 5909 5910 5910 5909 5908 5909 5908 5906 5905 5904 5904 5904 5903 5903
5889 5890 5890 5891 5892 5893 5893 5894 5894 5895 5894 5895 5895 5896 5896 5897 5898 5899 5899 5900 5902 5902 5903 5903 5903 5904 5903 5904 5906 5907 5906 5905 5905 5906 5907 5907 5908 5909 5909 5910 5911 5911 5912 5913 5914 5915 5915 5915 5915 5914 5913 5914 5912 5911 5911 5911 5910 5910 5911 5910 5911 5911 5911 5909 5908 5908 5908 5908 5908 5908 5907 5906 5906 5906 5905 5905 5905 5904 5902 5900 5899 5900 5900 5899 5898
5885 5887 5888 5889 5889 5889 5890 5890 5891 5891 5891 5891 5891 5891 5892 5893 5893 5894 5894 5895 5896 5897 5898 5899 5899 5900 5899 5899 5901 5903 5902 5901 5901 5902 5902 5903 5903 5904 5905 5906 5907 5907 5908 5907 5907 5909 5909 5909 5910 5910 5909 5908 5908 5907 5907 5907 5906 5906 5907 5907 5907 5907 5907 5906 5904 5904 5903 5903 5903 5903 5903 5902 5901 5901 5900 5900 5900 5899 5898 5897 5896 5897 5896 5894 5893
5883 5884 5885 5886 5886 5886 5887 5887 5888 5888 5888 5888 5888 5888 5887 5888 5888 5888 5888 5890 5891 5892 5893 5894 5894 5895 5896 5896 5897 5897 5897 5896 5897 5898 5898 5899 5899 5899 5900 5903 5903 5903 5903 5903 5902 5903 5903 5902 5902 5901 5901 5901 5902 5902 5903 5902 5901 5901 5902 5902 5903 5903 5902 5901 5900 5900 5899 5898 5899 5899 5898 5897 5896 5894 5894 5896 5896 5895 5894 5894 5893 5893 5891 5890 5889
5881 5881 5881 5882 5882 5883 5884 5885 5885 5885 5885 5885 5885 5884 5883 5883 5883 5883 5883 5884 5885 5886 5887 5888 5889 5890 5892 5892 5892 5892 5892 5891 5892 5892 5893 5894 5895 5895 5897 5899 5900 5899 5899 5898 5898 5898 5897 5896 5894 5893 5894 5896 5896 5896 5897 5896 5896 5896 5896 5896 5897 5898 5898 5897 5896 5896 5895 5894 5893 5894 5894 5893 5892 5891 5892 5893 5893 5891 5889 5888 5888 5887 5886 5885 5885
5878 5879 5879 5879 5880 5881 5881 5881 5882 5882 5882 5882 5881 5880 5880 5880 5880 5879 5879 5879 5880 5881 5881 5882 5883 5885 5886 5887 5887 5886 5886 5886 5887 5888 5888 5889 5890 5891 5893 5894 5894 5894 5893 5892 5893 5893 5891 5890 5889 5888 5889 5891 5891 5891 5891 5890 5890 5890 5890 5890 5891 5891 5892 5892 5892 5891 5890 5889 5888 5888 5888 5888 5887 5887 5889 5889 5888 5885 5884 5882 5882 5882 5882 5881 5880
5876 5876 5877 5877 5877 5878 5878 5878 5879 5879 5879 5879 5878 5877 5877 5877 5877 5877 5877 5877 5877 5877 5877 5877 5878 5879 5880 5881 5881 5881 5881 5882 5883 5883 5883 5884 5885 5885 5887 5887 5886 5886 5887 5887 5886 5886 5885 5885 5885 5884 5885 5885 5886 5885 5885 5885 5885 5885 5884 5884 5884 5884 5885 5885 5885 5885 5884 5884 5884 5883 5882 5881 5880 5880 5881 5882 5881 5880 5878 5877 5877 5877 5876 5875 5875
5873 5873 5874 5874 5874 5875 5875 5875 5876 5876 5876 5876 5876 5875 5874 5873 5873 5874 5874 5874 5875 5875 5874 5874 5874 5874 5875 5875 5876 5876 5876 5877 5878 5878 5878 5878 5879 5879 5880 5881 5880 5880 5881 5881 5881 5880 5879 5880 5880 5880 5880 5880 5880 5880 5879 5879 5879 5878 5878 5878 5878 5878 5878 5878 5878 5878 5877 5878 5878 5877 5876 5875 5875 5873 5873 5874 5874 5873 5873 5873 5872 5871 5870 5870 5870
5870 5871 5871 5871 5871 5871 5872 5872 5872 5872 5872 5872 5872 5871 5871 5870 5870 5870 5870 5870 5871 5871 5871 5871 5871 5871 5871 5871 5871 5871 5871 5871 5872 5873 5873 5873 5873 5873 5874 5875 5875 5875 5875 5875 5875 5875 5875 5874 5875 5875 5875 5875 5874 5873 5873 5873 5872 5872 5872 5872 5872 5872 5871 5871 5871 5871 5870 5870 5871 5871 5870 5869 5869 5868 5868 5868 5868 5867 5867 5868 5867 5866 5865 5865 5864
5866 5867 5867 5867 5868 5868 5868 5868 5868 5868 5868 5868 5868 5868 5867 5866 5866 5866 5866 5866 5867 5867 5867 5867 5867 5867 5867 5867 5867 5867 5867 5866 5866 5867 5867 5868 5868 5868 5868 5868 5869 5869 5869 5869 5869 5869 5869 5869 5869 5869 5868 5868 5867 5866 5866 5867 5867 5867 5867 5866 5866 5866 5865 5865 5865 5864 5864 5864 5864 5864 5864 5864 5863 5863 5863 5863 5863 5862 5862 5862 5862 5861 5860 5859 5858
5862 5863 5863 5863 5864 5864 5864 5865 5865 5864 5864 5864 5864 5864 5864 5863 5863 5863 5863 5863 5863 5863 5863 5863 5864 5864 5864 5864 5864 5864 5864 5863 5863 5862 5863 5863 5863 5863 5863 5863 5863 5863 5863 5863 5863 5863 5864 5863 5863 5862 5861 5861 5860 5860 5860 5860 5861 5861 5860 5860 5860 5859 5859 5859 5858 5858 5858 5858 5858 5858 5858 5858 5858 5857 5857 5858 5858 5858 5857 5857 5856 5856 5855 5853 5852
5858 5859 5859 5859 5859 5860 5860 5861 5861 5861 5861 5861 5861 5860 5860 5860 5860 5859 5859 5859 5859 5859 5859 5859 5859 5859 5860 5860 5860 5860 5860 5860 5860 5859 5859 5859 5859 5859 5858 5858 5858 5857 5857 5857 5857 5857 5858 5857 5857 5856 5855 5854 5854 5853 5853 5854 5854 5854 5854 5854 5854 5853 5853 5853 5853 5852 5852 5852 5851 5851 5851 5851 5851 5852 5852 5852 5852 5852 5852 5851 5850 5848 5848 5847 5846
5855 5855 5855 5855 5856 5856 5857 5857 5857 5857 5857 5857 5857 5857 5857 5857 5856 5856 5856 5856 5855 5855 5855 5855 5855 5855 5855 5855 5855 5855 5855 5856 5856 5855 5855 5855 5855 5854 5854 5854 5853 5853 5852 5852 5852 5852 5852 5852 5851 5851 5850 5849 5848 5848 5848 5848 5848 5847 5847 5848 5848 5847 5847 5847 5847 5846 5846 5846 5845 5845 5845 5845 5845 5845 5845 5845 5845 5845 5844 5844 5842 5841 5840 5840 5839
5852 5852 5852 5852 5852 5852 5853 5853 5853 5853 5854 5854 5854 5854 5853 5853 5853 5853 5852 5852 5851 5851 5851 5851 5851 5850 5851 5851 5851 5851 5851 5851 5851 5851 5851 5850 5850 5849 5849 5849 5849 5849 5848 5848 5848 5847 5847 5847 5846 5846 5845 5845 5844 5843 5843 5843 5842 5841 5841 5842 5842 5841 5841 5841 5841 5840 5840 5840 5839 5839 5839 5838 5838 5838 5838 5838 5838 5837 5837 5836 5835 5834 5833 5833 5832
5848 5848 5848 5848 5849 5849 5849 5849 5849 5849 5849 5849 5850 5850 5849 5849 5849 5849 5848 5848 5847 5847 5846 5846 5846 5846 5846 5846 5846 5846 5846 5846 5846 5846 5846 5845 5845 5844 5844 5844 5844 5844 5843 5843 5843 5842 5842 5841 5841 5840 5840 5839 5838 5838 5838 5838 5837 5836 5835 5836 5836 5836 5835 5835 5835 5834 5834 5834 5833 5833 5832 5832 5831 5831 5831 5830 5830 5829 5829 5828 5827 5827 5826 5826 5825
5843 5843 5844 5844 5845 5845 5845 5845 5845 5845 5845 5845 5845 5845 5845 5845 5845 5844 5844 5844 5843 5843 5843 5842 5842 5842 5841 5841 5842 5842 5842 5842 5841 5841 5841 5840 5840 5839 5839 5839 5839 5838 5838 5838 5837 5836 5836 5835 5835 5834 5834 5833 5833 5832 5832 5832 5832 5831 5830 5829 5830 5830 5829 5828 5828 5827 5827 5827 5827 5826 5825 5825 5824 5824 5823 5823 5822 5821 5821 5820 5820 5820 5819 5819 5818
5839 5839 5839 5839 5840 5840 5840 5841 5841 5841 5840 5840 5840 5840 5840 5840 5840 5840 5840 5839 5839 5839 5838 5838 5838 5838 5837 5837 5837 5837 5837 5837 5837 5836 5836 5836 5835 5835 5834 5834 5833 5833 5832 5832 5831 5831 5830 5829 5829 5828 5828 5827 5827 5826 5826 5825 5825 5825 5824 5823 5823 5823 5822 5822 5821 5821 5820 5820 5819 5818 5818 5817 5817 5816 5816 5815 5814 5813 5813 5812 5812 5812 5811 5811 5810
5834 5835 5835 5835 5835 5835 5835 5835 5836 5836 5836 5836 5836 5836 5835 5835 5835 5835 5835 5835 5834 5834 5834 5834 5833 5833 5833 5832 5832 5832 5832 5831 5831 5831 5831 5831 5830 5830 5829 5828 5828 5827 5826 5826 5825 5824 5824 5823 5823 5822 5822 5821 5821 5820 5819 5819 5818 5818 5818 5817 5816 5816 5815 5815 5814 5814 5813 5812 5812 5811 5810 5809 5809 5808 5808 5807 5806 5805 5804 5804 5803 5803 5803 5802 5801
5830 5831 5831 5831 5831 5831 5831 5831 5831 5831 5831 5831 5831 5831 5831 5830 5830 5830 5830 5829 5829 5829 5829 5829 5828 5828 5828 5828 5827 5827 5827 5826 5826 5826 5825 5825 5824 5824 5823 5823 5822 5821 5820 5820 5819 5818 5817 5817 5816 5815 5815 5815 5814 5813 5813 5812 5811 5811 5811 5810 5809 5808 5808 5807 5806 5806 5805 5805 5804 5803 5802 5802 5801 5800 5799 5799 5798 5797 5796 5795 5794 5794 5793 5793 5792
5826 5826 5826 5826 5826 5827 5826 5826 5826 5826 5826 5826 5826 5826 5826 5826 5825 5825 5824 5824 5824 5824 5824 5823 5823 5823 5822 5822 5822 5821 5821 5821 5820 5820 5820 5819 5819 5818 5817 5817 5816 5815 5815 5814 5813 5812 5811 5810 5810 5809 5808 5807 5807 5806 5805 5805 5804 5804 5803 5803 5802 5801 5800 5799 5799 5798 5797 5796 5796 5795 5794 5793 5792 5791 5791 5790 5790 5789 5788 5787 5786 5785 5785 5784 5783
5821 5822 5822 5822 5822 5822 5822 5822 5822 5822 5822 5822 5821 5821 5821 5821 5820 5820 5819 5819 5819 5819 5818 5818 5818 5817 5817 5817 5816 5816 5815 5815 5815 5814 5814 5813 5812 5812 5811 5811 5810 5809 5808 5807 5806 5806 5805 5804 5803 5802 5801 5800 5799 5798 5797 5797 5796 5795 5795 5794 5793 5793 5792 5792 5791 5790 5789 5788 5787 5786 5785 5785 5783 5782 5782 5781 5780 5780 5779 5778 5778 5777 5776 5776 5775
5817 5817 5817 5818 5818 5818 5818 5818 5818 5818 5818 5817 5817 5817 5816 5816 5816 5815 5815 5814 5814 5814 5814 5813 5813 5812 5812 5811 5811 5810 5810 5810 5809 5809 5808 5807 5807 5806 5805 5804 5803 5803 5802 5801 5800 5799 5798 5797 5796 5795 5794 5793 5791 5790 5790 5789 5788 5787 5786 5785 5784 5784 5783 5783 5782 5781 5780 5779 5779 5777 5777 5776 5774 5773 5773 5772 5771 5770 5769 5768 5768 5767 5767 5767 5766
5813 5813 5814 5814 5814 5814 5814 5814 5814 5814 5813 5813 5813 5812 5812 5812 5811 5811 5810 5810 5809 5809 5809 5809 5808 5807 5807 5806 5806 5805 5805 5804 5804 5803 5802 5802 5801 5800 5799 5798 5797 5796 5795 5794 5793 5792 5791 5790 5788 5787 5786 5785 5784 5782 5782 5781 5780 5779 5778 5777 5776 5775 5774 5773 5772 5772 5771 5770 5770 5769 5768 5767 5766 5765 5764 5763 5762 5761 5760 5759 5758 5757 5757 5756 5755
5810 5810 5810 5810 5810 5810 5810 5810 5810 5809 5809 5809 5808 5808 5808 5807 5807 5806 5806 5805 5804 5804 5803 5803 5803 5802 5802 5802 5801 5800 5799 5799 5798 5797 5796 5796 5794 5793 5792 5791 5790 5789 5788 5787 5786 5785 5783 5782 5781 5779 5778 5777 5776 5774 5773 5772 5771 5770 5769 5768 5767 5767 5765 5764 5763 5762 5761 5760 5760 5759 5759 5758 5757 5756 5755 5754 5753 5753 5751 5750 5749 5748 5747 5746 5745
5807 5807 5807 5806 5806 5806 5806 5806 5806 5805 5805 5805 5804 5804 5803 5803 5802 5802 5801 5801 5800 5799 5798 5798 5798 5797 5796 5796 5796 5795 5794 5793 5792 5791 5790 5789 5788 5786 5785 5784 5783 5782 5781 5780 5778 5778 5776 5775 5773 5771 5770 5770 5768 5766 5765 5764 5762 5761 5760 5758 5757 5757 5756 5754 5754 5753 5751 5750 5750 5750 5749 5748 5747 5747 5746 5745 5743 5743 5742 5741 5740 5740 5739 5737 5736
5803 5804 5803 5803 5803 5803 5802 5802 5802 5801 5801 5800 5800 5799 5799 5798 5798 5797 5796 5795 5795 5794 5793 5793 5791 5791 5791 5791 5790 5789 5788 5787 5785 5784 5783 5783 5782 5780 5778 5776 5775 5774 5772 5771 5770 5768 5767 5766 5764 5763 5762 5761 5759 5757 5755 5754 5753 5751 5750 5749 5747 5746 5746 5745 5744 5743 5741 5740 5740 5739 5738 5737 5737 5736 5735 5734 5733 5732 5732 5731 5730 5730 5729 5728 5727
5800 5800 5800 5799 5799 5799 5798 5798 5798 5797 5797 5796 5795 5795 5794 5794 5793 5792 5791 5790 5789 5788 5787 5786 5784 5783 5784 5784 5783 5782 5781 5779 5778 5776 5775 5775 5775 5774 5772 5770 5769 5767 5765 5764 5762 5759 5757 5755 5754 5754 5753 5752 5750 5747 5745 5744 5742 5741 5740 5739 5737 5736 5735 5735 5733 5732 5731 5730 5729 5728 5727 5726 5725 5724 5723 5722 5722 5721 5721 5720 5720 5719 5719 5718 5717
5796 5796 5796 5795 5795 5794 5794 5793 5793 5793 5792 5791 5791 5790 5789 5788 5787 5786 5785 5784 5783 5782 5780 5778 5777 5777 5776 5775 5774 5773 5772 5770 5768 5766 5764 5764 5764 5764 5763 5762 5761 5759 5757 5755 5753 5752 5749 5746 5744 5744 5744 5742 5739 5736 5735 5734 5732 5730 5729 5728 5726 5725 5725 5723 5721 5720 5721 5720 5718 5716 5715 5714 5714 5713 5712 5711 5710 5710 5709 5709 5709 5709 5708 5708 5707
5791 5791 5791 5790 5790 5789 5789 5788 5788 5787 5787 5786 5785 5784 5783 5782 5781 5780 5778 5777 5776 5775 5773 5771 5769 5769 5769 5767 5765 5764 5763 5760 5758 5756 5753 5752 5751 5751 5750 5750 5749 5748 5747 5744 5742 5741 5739 5736 5733 5734 5734 5732 5728 5726 5724 5722 5721 5720 5718 5717 5716 5715 5714 5712 5710 5708 5708 5708 5706 5705 5704 5703 5702 5701 5700 5700 5699 5698 5697 5697 5697 5697 5697 5697 5696
5787 5786 5786 5785 5785 5784 5783 5783 5782 5781 5780 5779 5778 5777 5776 5775 5773 5772 5771 5770 5768 5767 5765 5763 5761 5760 5760 5759 5757 5756 5753 5751 5749 5747 5744 5742 5740 5738 5738 5737 5737 5736 5734 5733 5731 5730 5728 5724 5721 5721 5722 5721 5718 5716 5714 5712 5711 5709 5708 5706 5704 5703 5702 5701 5699 5698 5696 5696 5694 5693 5692 5691 5690 5689 5688 5688 5688 5687 5686 5686 5685 5685 5685 5685 5685
5782 5781 5781 5780 5779 5779 5778 5777 5776 5775 5774 5773 5771 5770 5769 5768 5766 5765 5764 5762 5761 5759 5758 5755 5753 5752 5751 5750 5748 5747 5744 5742 5740 5738 5736 5733 5730 5728 5727 5727 5726 5724 5722 5721 5721 5720 5717 5714 5711 5710 5709 5708 5707 5706 5704 5702 5701 5700 5699 5697 5694 5692 5690 5689 5688 5686 5684 5684 5683 5682 5681 5679 5678 5678 5677 5677 5677 5676 5676 5675 5674 5674 5674 5674 5674
5777 5776 5776 5775 5774 5773 5772 5771 5770 5769 5767 5766 5765 5763 5762 5760 5759 5757 5756 5754 5753 5751 5750 5747 5746 5744 5742 5740 5739 5737 5735 5733 5731 5729 5727 5724 5721 5718 5717 5717 5716 5714 5711 5710 5710 5710 5707 5705 5703 5701 5699 5697 5696 5695 5694 5692 5691 5690 5689 5687 5685 5682 5680 5678 5676 5674 5673 5673 5672 5671 5669 5668 5668 5667 5666 5665 5665 5665 5664 5664 5664 5664 5664 5664 5664
5772 5771 5770 5769 5768 5767 5766 5765 5763 5762 5761 5759 5758 5756 5755 5753 5751 5750 5748 5746 5745 5743 5741 5739 5738 5736 5733 5731 5729 5728 5726 5724 5722 5720 5718 5715 5712 5710 5708 5707 5706 5704 5702 5700 5700 5699 5698 5696 5694 5692 5689 5688 5686 5685 5683 5682 5681 5679 5678 5677 5676 5673 5670 5667 5664 5663 5663 5662 5661 5660 5658 5658 5657 5656 5654 5654 5654 5654 5653 5653 5653 5653 5653 5653 5653
5767 5766 5764 5763 5762 5761 5760 5758 5757 5755 5754 5752 5751 5749 5747 5746 5744 5742 5740 5739 5737 5735 5732 5731 5729 5728 5725 5722 5720 5719 5717 5715 5712 5711 5709 5707 5704 5702 5701 5698 5696 5694 5692 5691 5690 5689 5688 5687 5685 5682 5679 5678 5676 5675 5674 5672 5671 5669 5668 5667 5666 5663 5661 5658 5655 5654 5654 5653 5651 5650 5649 5648 5647 5646 5644 5644 5643 5643 5643 5642 5642 5642 5642 5643 5643
5761 5760 5758 5757 5756 5754 5753 5752 5750 5748 5747 5745 5743 5742 5740 5738 5736 5734 5732 5730 5728 5726 5724 5722 5720 5719 5717 5714 5712 5710 5708 5706 5703 5701 5699 5698 5696 5694 5692 5690 5687 5684 5683 5681 5680 5679 5678 5677 5675 5673 5670 5667 5666 5665 5664 5662 5661 5660 5660 5658 5656 5654 5652 5650 5648 5646 5645 5644 5643 5642 5641 5639 5638 5637 5636 5635 5634 5633 5633 5633 5632 5632 5632 5632 5632
5755 5754 5752 5751 5749 5748 5746 5745 5743 5742 5740 5738 5736 5734 5733 5730 5728 5726 5725 5722 5720 5718 5716 5714 5712 5710 5708 5705 5703 5701 5699 5697 5695 5692 5690 5689 5687 5685 5683 5682 5680 5676 5674 5672 5670 5669 5668 5667 5666 5664 5661 5658 5656 5655 5654 5652 5651 5651 5650 5649 5647 5645 5644 5642 5640 5638 5637 5636 5635 5634 5633 5632 5631 5630 5629 5628 5627 5626 5625 5624 5623 5623 5623 5622 5622
5749 5748 5746 5745 5743 5741 5740 5738 5736 5735 5733 5731 5729 5727 5725 5723 5720 5719 5717 5715 5712 5710 5708 5706 5704 5701 5699 5697 5695 5693 5690 5688 5686 5683 5682 5681 5679 5676 5674 5673 5671 5668 5666 5664 5661 5659 5658 5657 5655 5654 5651 5649 5648 5646 5644 5643 5642 5641 5640 5639 5638 5636 5635 5633 5632 5630 5629 5628 5627 5627 5626 5625 5624 5623 5621 5621 5620 5619 5618 5617 5616 5615 5615 5614 5614
5743 5741 5740 5738 5737 5735 5733 5732 5730 5728 5726 5724 5721 5719 5718 5716 5713 5711 5709 5707 5705 5702 5700 5698 5696 5693 5691 5689 5687 5685 5682 5680 5677 5675 5673 5672 5670 5668 5666 5663 5661 5659 5658 5655 5652 5650 5648 5646 5645 5643 5641 5639 5638 5636 5635 5634 5633 5632 5630 5630 5629 5627 5626 5625 5624 5623 5621 5620 5619 5619 5618 5617 5616 5615 5614 5613 5612 5611 5610 5610 5609 5608 5607 5607 5607